User: anonymous   Login
Location: Gloden
(48.4833°N, 15.3167°E)
Time: 08:37:57
(UTC+00:00)
Language:

TIGRISAT - Orbit

View from above orbital plane
View from above orbital plane
View from above satellite
View from above satellite

Ground track
Ground track

The orbit data is extracted from the following two-line orbital elements,

1 40043U 14033AK  21130.52314033  .00000146  00000-0  28631-4 0  9995
2 40043  97.6765 336.3244 0060398  22.3525 338.0296 14.74522152370243
Epoch (UTC): 10 May 2021 12:33:19
Eccentricity: 0.0060398
inclination: 97.6765°
perigee height: 604 km
apogee height: 689 km
right ascension of ascending node: 336.3244°
argument of perigee: 22.3525°
revolutions per day: 14.74522152
mean anomaly at epoch: 338.0296°
orbit number at epoch: 37024

The dashed part of the orbit path shows where the satellite is in the earth's shadow,  

DLR